Baseball 板


LINE

Tohoku Hokkaido Rakuten Nippon-Ham Golden Eagles 冈岛豪郎 圣泽谅 福田将仪 Fighters 1 圣泽谅 西川遥辉 阳岱钢 谷口雄也 / 1 西川遥辉福田将仪 \   後藤光尊 藤田一也   /  2 田中贤介赤见内银次中岛卓也 田中贤介 /   3 阳岱钢Pena 赤见内银次 Sanchez 中田翔Sanchez Laird 中田翔  5 Hermida冈岛豪郎     \ 横山贵明 /      6 Laird後藤光尊 DH \ 克拉帝 /  DH    7 近藤健介嶋基宏 Pena \   / Hermida 谷口雄也藤田一也         \ /         9 中岛卓也 嶋基宏 FOX Sports 3 HD 直播 近藤健介 十二点开打 --



※ 发信站: 批踢踢实业坊(ptt.cc), 来自: 61.228.18.67
※ 文章网址: https://webptt.com/cn.aspx?n=bbs/Baseball/M.1427599747.A.CC1.html
1F:推 lmf770410: 阳今天炸裂,楼下10楼100p 03/29 11:34
2F:推 Hawaii015: 来了 03/29 11:35
3F:推 sakaizawa: 好! 03/29 11:35
4F:推 YuiiAnitima: 推 03/29 11:35
5F:推 a30253: 推 03/29 11:35
6F:推 hotsummer543: 推推 03/29 11:35
7F:推 xyf290: Yoh 炸裂吧!! 03/29 11:36
8F:推 aray0093: 加油! 03/29 11:36
9F:推 hbk20491: 0.0 03/29 11:36
10F:推 jenchieh5: yoh 03/29 11:36
11F:推 aids893001: 推 03/29 11:36
12F:推 Kaberman569: Push 03/29 11:36
13F:推 oostanfordoo: push 03/29 11:37
14F:推 robo3456: 希克拉帝加油 03/29 11:42
15F:推 johnnyno: 炸!! 03/29 11:42
16F:推 bemyself0: 没付钱看不到了.... 03/29 11:54
17F:→ hicker: FOX开播 03/29 11:58
18F:→ hicker: 本场球评 淑芳姐 03/29 11:58
19F:推 STTKK: 看不到 QQ 03/29 12:01
20F:推 lmf770410: ps. 税後喔~ 03/29 12:01
21F:推 nthomas: 有付钱也蛮痛苦的 要在mod和有线电视换来换去 03/29 12:05
22F:推 candy04242: 期待一炸 03/29 12:08
23F:推 pollymina: 台北地区第四台有fox3吗? 03/29 12:08
24F:推 YuiiAnitima: 第四台的FOX3在200多台的加值频道里面 03/29 12:10
25F:→ YuiiAnitima: 要另外付费 03/29 12:11
26F:推 sxxs: 该不会要点吧.... 03/29 12:11
27F:推 nolimits: FOX3台的普遍率应该不高吧,没得看了 03/29 12:13
28F:推 pollymina: 谢谢y大QQ 03/29 12:13
29F:推 sxxs: HRRRRRRRRRRRRRRRRRRRRRRRRRRRRRRR 03/29 12:13
30F:推 JoneNan: 炸裂罗 03/29 12:13
31F:→ hicker: YOH HR!! 03/29 12:13
32F:推 aray0093: YOH HR~~ 03/29 12:14
33F:→ sxxs: 钢炮 03/29 12:14
34F:推 csazrael: HRRRRRRRRRRRRR 03/29 12:14
35F:推 jackyfox23: hr 03/29 12:14
36F:推 bear15328: 1楼真神 03/29 12:14
37F:推 chihow: 没得看QQ 03/29 12:14
38F:推 awayaway: !!!!!!!!!!!!!!!!!!!! 03/29 12:14
39F:推 yankees733: HRRR 03/29 12:14
40F:→ lrh18: QQPPT:阳岱纲被看破手脚了吗 谢谢你的加持 03/29 12:15
41F:推 ycsheaven: 说炸就炸说炸就炸! 03/29 12:17
42F:推 qq850405: 请问威达有fox3台吗 03/29 12:17
43F:推 vincent39: Thank youで~す! 03/29 12:19
44F:推 tonycowzz: 台南是第几台?? 03/29 12:19
45F:推 aalittle: 看系统业者 有的地方加钱也没FOX3 03/29 12:19
46F:推 homerun100: 台南也要加钱 03/29 12:20
47F:推 YuiiAnitima: 威达没有FOX3台喔 连加值频道都没有 03/29 12:20
48F:推 phrita: 台南双子星没有 03/29 12:20
49F:→ YuiiAnitima: 双子星在222台 要另外付费 03/29 12:22
50F:→ hicker: 又炸!! 03/29 12:22
51F:推 bleachdie: HR 03/29 12:22
52F:推 robo3456: 单局两轰 03/29 12:23
53F:→ hicker: LAIRD HR 03/29 12:23
54F:推 gtayu: 赞 03/29 12:23
55F:推 st210113: 投手炸掉了 03/29 12:24
56F:→ hicker: 打不完了.... 03/29 12:25
57F:推 st210113: 这样也穿出去,会不会第一局就打一轮 03/29 12:26
58F:→ hicker: 现在已经到第八人了 03/29 12:27
59F:推 book8685: fox策略失败 03/29 12:27
60F:推 OceanAdin: 旅台就是神 03/29 12:29
61F:→ hicker: 谷口内安 真的打一轮了 03/29 12:29
62F:推 Sheng98: 台南三冠王 fs3hd 222, MOD ch178 03/29 12:29
63F:推 sesd: FOX炸裂 赌错场了 HD少人看阳炸裂 FOX1台多人看 郭炸裂 XD 03/29 12:30
64F:推 st210113: 内安XD 真的打一轮了 03/29 12:30
65F:→ hicker: 札幌蛋的大萤幕超赞 台湾哪时也可以有这样的?? 03/29 12:31
66F:推 st210113: 第一局就被打一轮 球数破40球 03/29 12:33
67F:推 furret: 第一局快50球 03/29 12:33
68F:推 Tars: 也好吧 FOX3HD的看起来也舒服 03/29 12:33
69F:→ hicker: BBBB 进入第二轮 03/29 12:33
70F:→ hicker: 乐天换投了 03/29 12:34
71F:推 robo3456: 打不完了 03/29 12:34
72F:→ Tars: 两场的半局都投不完XD 03/29 12:34
73F:推 Sheng98: 会想看 HD 画质的比赛早早就先申装加值频道了吧 03/29 12:34
74F:推 st210113: 保送XD 03/29 12:35
75F:→ st210113: 投手信心崩盘了吧 03/29 12:35
76F:→ hicker: 西川单局死两次 03/29 12:37
77F:推 furret: 克拉帝:我终於可以投了 03/29 12:38
78F:推 st210113: 终於XD 03/29 12:38
79F:推 conpo: 阳的镜头真多XD 03/29 12:39
80F:推 furret: 直球136? 03/29 12:40
81F:→ ppacers: 克拉帝好强 CPBL比NPB还强 03/29 12:45
82F:推 conpo: NP 03/29 12:49
83F:推 furret: 基宏被跳接 03/29 12:49
84F:推 VaLenTi1007: 克拉帝lucky 03/29 12:49
85F:推 jenchieh5: 基宏可惜 两个基宏我都超爱看的阿 03/29 12:50
86F:→ conpo: 贤介~~ 贤介~~ 03/29 12:51
87F:推 SoloHomerun: 又换火腿进攻了? 03/29 12:53
88F:推 conpo: 阳要上了 03/29 12:56
89F:→ hicker: 呃 一楼P币送出去了没?? 03/29 12:56
90F:推 newsbow: 阳的登场曲换了? 换灌篮高手XD 03/29 12:56
91F:→ hicker: K 03/29 12:57
92F:→ twyes1688: 求 今天 阳 的 HR 影片 03/29 12:57
93F:推 sxxs: K战士 03/29 12:57
94F:→ conpo: K.. 03/29 12:57
95F:推 bleachdie: KKK 03/29 12:57
96F:推 nolimits: 三球三振... 03/29 12:57
97F:推 furret: 3球k 03/29 12:57
98F:→ jenchieh5: K斗士 03/29 12:57
99F:推 SoloHomerun: 呃…被KT_T 03/29 12:57
100F:→ Sheng98: HR -> K .....真极端 03/29 12:58
101F:推 ALiGoo: 这球也太高.. 03/29 12:58
102F:→ sxxs: HRRRRRRRRRRRRRRR 03/29 12:58
103F:→ Sheng98: 炸裂 03/29 12:58
104F:→ conpo: 诈 03/29 12:58
105F:→ bleachdie: HRRRRRRR 03/29 12:58
106F:→ hicker: 中田标竿炸裂!! 03/29 12:58
107F:推 best306022: 炸裂啦 03/29 12:58
108F:→ hicker: 火腿今天第三轰 03/29 12:59
109F:推 Tars: 阳2分炮 http://goo.gl/aY0HOr 03/29 13:00
110F:推 lmf770410: 还没人在外面,抱歉 03/29 13:00
111F:→ lmf770410: 晚点会发的,不会食言,哈哈 03/29 13:00
112F:推 gidapops: 乐天打不倒克拉蒂 03/29 13:05
113F:推 ppacers: 克拉帝好强 03/29 13:08
114F:→ sxxs: 这样都拉真远 @_@ 03/29 13:10
115F:推 Sheng98: 差一点被 NP 03/29 13:11
116F:推 Sheng98: 三垒打带有两分打点 03/29 13:16
117F:推 mimiiy: 打不完 03/29 13:17
118F:→ conpo: 乐天XDD 03/29 13:17
119F:推 s3186j: HHH 03/29 13:17
120F:推 gn02143363: 欢乐? 03/29 13:17
121F:→ hicker: 乐天 0:7 火腿 03/29 13:17
122F:推 sesd: 小久保 鐡拳准备好了 03/29 13:17
123F:→ sesd: 大 03/29 13:17
124F:→ sesd: 实况太爱小久保了 大久保博元都记成小久保XD 03/29 13:18
125F:推 Sheng98: 打率 .000 ...... 03/29 13:19
126F:→ Sheng98: BBBBBBB 03/29 13:21
127F:推 conpo: 阳这下又有机会上来了XDD 03/29 13:21
128F:推 Sheng98: HHHHHH 打不完了 XD 03/29 13:23
129F:推 s3186j: HHH 03/29 13:23
130F:推 conpo: 真的打不完XD 03/29 13:23
131F:→ hicker: 乐天 0:8 火腿 03/29 13:23
132F:→ nolimits: 乐天大爆炸 03/29 13:23
133F:推 mimiiy: 怎麽打怎麽穿 03/29 13:23
134F:→ william7713: 克拉帝: 好久啊~~~~ 03/29 13:23
135F:→ hicker: 才第三局就打到第三轮了 03/29 13:23
136F:→ conpo: 来记三分球吧 03/29 13:24
137F:推 salazopyrin: 打不完啊.... 03/29 13:24
138F:→ mimiiy: DP 03/29 13:24
139F:→ hicker: YOH DP.... 03/29 13:24
140F:→ Sheng98: 噗 DP 03/29 13:24
141F:推 HiHiCano: Dp阳... 03/29 13:24
142F:推 sxxs: 阳....... 03/29 13:24
143F:→ e9ez1: 好惨 只有一支安打 03/29 13:24
144F:→ salazopyrin: 阳是好人 XDDD 03/29 13:24
145F:→ Sheng98: HR, K, DP 都集到了, 剩下 BB 03/29 13:24
146F:推 lmf770410: 克拉帝:怎麽比中职还久 03/29 13:25
147F:→ gidapops: 不错啦 dp代表打很强 03/29 13:26
148F:推 mimiiy: K 03/29 13:27
149F:推 conpo: K!今天的ガラテ真猛 03/29 13:28
150F:推 Sheng98: 驱逐出场 XDDDDDDDDD 03/29 13:28
151F:→ hicker: PENA抗议被赶出场 03/29 13:28
152F:→ mimiiy: 抗议好球驱逐出场 03/29 13:28
153F:推 salazopyrin: 赶出场啦 03/29 13:28
154F:→ Sheng98: 画线....... 03/29 13:28
155F:推 OceanAdin: XDDD 03/29 13:28
156F:推 gidapops: 旅犀就是 03/29 13:28
157F:→ jenchieh5: ペーニャ...................... 03/29 13:28
158F:推 Zuleta: Pena本来就不意外阿ww去年队友没跑回来差点猫下去 03/29 13:28
159F:推 mimiiy: 三上三下 03/29 13:30
160F:推 conpo: 乐天出局如风啊... 03/29 13:30
161F:推 mimiiy: 应该可以恭喜克拉帝首胜入手了吧……… 03/29 13:32
162F:→ hicker: 差点又炸 03/29 13:37
163F:→ sxxs: 9:0 03/29 13:37
164F:推 Sheng98: 差点过墙的安打 03/29 13:37
165F:推 conpo: 惨不忍睹 03/29 13:37
166F:→ william7713: 打不完 差点又炸 03/29 13:37
167F:→ hicker: 乐天 0:9 火腿 03/29 13:38
168F:→ sxxs: 主播酸阳只打一支安打 XD 03/29 13:38
169F:→ h034826567: 大屠杀的节奏.... 03/29 13:39
170F:推 zokk: 克拉帝是去年eda那个吗?? 03/29 13:39
171F:→ hicker: 是的 03/29 13:39
172F:→ jenchieh5: 反观隔壁棚希克苦战中 03/29 13:40
173F:推 Sheng98: 一个在室内, 一个在室外 03/29 13:41
174F:→ gidapops: 克比较准又有变化球 希克比较快 03/29 13:42
175F:推 lmf770410: 看投球姿势就知道了吧Xd 03/29 13:42
176F:推 Sheng98: 乐天五局打完未得分 03/29 13:50
177F:推 mimiiy: 克拉帝好稳 03/29 13:50
178F:→ hicker: 不只五局打完得分挂蛋 安打还只是对方的零头都不到 03/29 13:51
179F:→ Sheng98: 安打终於开张, 打率终於上升 03/29 13:53
180F:→ hicker: 特写西川打率挂蛋 拍完就安打了 03/29 13:53
181F:→ Sheng98: 摆脱打率 0 的男人 03/29 13:54
182F:推 sxxs: XD 03/29 13:54
183F:→ william7713: 速度好快 这样就二垒打 03/29 13:54
184F:推 mimiiy: 跑超快 03/29 13:54
185F:推 sharkhead: kkkkkkkkkkkk 03/29 13:54
186F:→ sharkhead: 走错棚 03/29 13:55
187F:推 Sheng98: BB 03/29 13:56
188F:→ william7713: 要来支三分炮了吗!! 03/29 13:56
189F:推 conpo: 乐天是觉得自己输不够吗?XDDD 03/29 13:56
190F:→ Sheng98: 灌高登场曲 03/29 13:56
191F:→ Sheng98: 君が好きだと叫びたい 03/29 13:56
192F:→ Sheng98: EEEEEEEE 03/29 13:56
193F:→ hicker: 乐天 0:10 火腿 03/29 13:56
194F:→ conpo: 搞笑 03/29 13:57
195F:推 henry860520: EEEEEEEEEEEEE XDDDDDDDDD 03/29 13:57
196F:→ henry860520: HR K DP E 再来是? 03/29 13:57
197F:→ Sheng98: 5 局未满已打进 10 分了 03/29 13:57
198F:推 salazopyrin: 个种掉分啊 03/29 13:57
199F:→ Sheng98: 原来换投手了 03/29 13:58
200F:推 gidapops: BB吧 HR算H 03/29 13:59
201F:推 Sheng98: 就差一个 BB 03/29 14:00
202F:→ Sheng98: 不要出现 HBP 就好 03/29 14:00
203F:→ henry860520: 来个 IBB 也不错(误 03/29 14:01
204F:→ Sheng98: 0:11 03/29 14:02
205F:→ sxxs: 0:11 03/29 14:02
206F:→ henry860520: 乐天 0 - 11 火腿 03/29 14:02
207F:→ conpo: 先投降算了 03/29 14:02
208F:推 crime: 火腿双洋炮的威力挺大的!! 阳要好好打,不然第三棒可能不保 03/29 14:03
209F:→ hicker: 要提前结束也要打完五局 何况这是没提前结束的职棒 03/29 14:03
210F:推 Sheng98: 还有四局要打 03/29 14:04
211F:→ Sheng98: 乐天的牛棚今天会狂烧 03/29 14:04
212F:推 henry860520: 又满垒了 五下一出局 03/29 14:04
213F:推 Sheng98: 要满垒才会投? K 掉了..... 03/29 14:07
214F:→ mimiiy: 5局15安11分,得分效率超高 03/29 14:09
215F:推 henry860520: 满垒连2K 原来满垒才会投 03/29 14:10
216F:→ Sheng98: 又来一 K .......果然是要满垒才会投 Orz 03/29 14:10
217F:→ mimiiy: 没满垒不会投 03/29 14:10
218F:推 conpo: 危机感发动 03/29 14:10
219F:推 joyna4629: 想看克拉帝投 赶快出局啦(误 03/29 14:10
220F:→ Sheng98: 五局就剧场 XD 03/29 14:10
221F:推 henry860520: 换投惹 QQ 03/29 14:14
222F:推 mimiiy: 换了,总共几球啊?应该没80吧 03/29 14:15
223F:推 joyna4629: 换了 没看到克拉帝投QQ 03/29 14:15
224F:推 haogo: 投70球就可以下班了 打线真捧场 03/29 14:16
225F:推 conpo: 谷元竟然只有167 03/29 14:17
226F:推 light531: 想看这个看不到 03/29 14:21
227F:推 Sheng98: 来个 BB 吧 03/29 14:27
228F:推 henry860520: 这次是正常出局... 03/29 14:27
229F:→ Sheng98: 游滚 03/29 14:27
230F:推 henry860520: 乐天破蛋 1-11 03/29 14:35
231F:推 Sheng98: 乐天破蛋了 03/29 14:35
232F:→ hicker: 乐天 1:11 火腿 乐天终於破蛋 03/29 14:35
233F:推 YuiiAnitima: 终於破蛋了 03/29 14:36
234F:推 conpo: 这首真不错 03/29 14:39
235F:→ chester71: 是有多会守.. 03/29 14:48
236F:→ hicker: 打完了 乐天 1:11 火腿 03/29 15:17
237F:推 henry860520: GAME SET 1-11 03/29 15:18







like.gif 您可能会有兴趣的文章
icon.png[问题/行为] 猫晚上进房间会不会有憋尿问题
icon.pngRe: [闲聊] 选了错误的女孩成为魔法少女 XDDDDDDDDDD
icon.png[正妹] 瑞典 一张
icon.png[心得] EMS高领长版毛衣.墨小楼MC1002
icon.png[分享] 丹龙隔热纸GE55+33+22
icon.png[问题] 清洗洗衣机
icon.png[寻物] 窗台下的空间
icon.png[闲聊] 双极の女神1 木魔爵
icon.png[售车] 新竹 1997 march 1297cc 白色 四门
icon.png[讨论] 能从照片感受到摄影者心情吗
icon.png[狂贺] 贺贺贺贺 贺!岛村卯月!总选举NO.1
icon.png[难过] 羡慕白皮肤的女生
icon.png阅读文章
icon.png[黑特]
icon.png[问题] SBK S1安装於安全帽位置
icon.png[分享] 旧woo100绝版开箱!!
icon.pngRe: [无言] 关於小包卫生纸
icon.png[开箱] E5-2683V3 RX480Strix 快睿C1 简单测试
icon.png[心得] 苍の海贼龙 地狱 执行者16PT
icon.png[售车] 1999年Virage iO 1.8EXi
icon.png[心得] 挑战33 LV10 狮子座pt solo
icon.png[闲聊] 手把手教你不被桶之新手主购教学
icon.png[分享] Civic Type R 量产版官方照无预警流出
icon.png[售车] Golf 4 2.0 银色 自排
icon.png[出售] Graco提篮汽座(有底座)2000元诚可议
icon.png[问题] 请问补牙材质掉了还能再补吗?(台中半年内
icon.png[问题] 44th 单曲 生写竟然都给重复的啊啊!
icon.png[心得] 华南红卡/icash 核卡
icon.png[问题] 拔牙矫正这样正常吗
icon.png[赠送] 老莫高业 初业 102年版
icon.png[情报] 三大行动支付 本季掀战火
icon.png[宝宝] 博客来Amos水蜡笔5/1特价五折
icon.pngRe: [心得] 新鲜人一些面试分享
icon.png[心得] 苍の海贼龙 地狱 麒麟25PT
icon.pngRe: [闲聊] (君の名は。雷慎入) 君名二创漫画翻译
icon.pngRe: [闲聊] OGN中场影片:失踪人口局 (英文字幕)
icon.png[问题] 台湾大哥大4G讯号差
icon.png[出售] [全国]全新千寻侘草LED灯, 水草

请输入看板名称,例如:iOS站内搜寻

TOP